Terminal Aerodrome Forecast
Issued by NWS

Home | Current Version | Previous Version | Text Only | Print | Product List | Glossary On
Versions: 1 2 3 4 5 6 7 8 9 10 11 12 13 14 15 16 17 18 19 20 21 22 23 24 25 26 27 28 29
000
FTUS43 KGRB 290534
TAFRHI
TAF
KRHI 290534Z 2906/3006 18007KT P6SM SCT040 BKN070
     FM290700 21006KT P6SM BKN035 OVC070
      TEMPO 2907/2909 4SM -SHRA OVC030
     FM290900 27008KT P6SM SKC
     FM291300 26012G23KT P6SM SCT070
     FM291600 26018G31KT P6SM SCT100
     FM300000 25010G18KT P6SM SKC=

USA.gov is the U.S. government's official web portal to all federal, state and local government web resources and services.